Terug naar catalogus

KUIPER-00631

ActiefCommunicatieLEO
NORAD 69784·PAYLOAD·🇺🇸 United States

Gelanceerd Jul 2, 2026 vanaf Cape Canaveral Space Force Station

Loading…

Volgende Passages (komende 24 uur)

TLE

VersSource: CelesTrak SupGP

Epoch: Sep 14, 2026, 21:45 UTC

1 69784C 26151X   26257.90671296  .00003508  00000+0  45937-3 0  2574
2 69784  51.8995 261.4274 0000800  76.9332 165.2639 14.79911366    17

Volg KUIPER-00631 in realtime met AllMySat

Download on the App Store